sat.trackr.live / text

‹ back to catalog

STARLINK-35536

NORAD 66261 · 2025-245AD

PAYLOAD ACTIVE UNKNOWN

§ Identity

Operator
Country
US
Launch date
2025-10-29
Launch site
AFETR
Launch vehicle
Mass (kg)
RCS (m²)

Purposes: comms

External: N2YO · Heavens-Above · Gunter

§ Orbital elements

Epoch: 2026-05-25T02:46:27.127200Z

Period
94.01 min
Inclination
53.1583°
Eccentricity
0.0001712
Mean motion
15.31716149 rev/d
Perigee alt
469.5 km
Apogee alt
471.9 km
Semi-major
6,848.8 km
B*
3.9418e-4
RAAN
288.4755°
Arg perigee
73.8563°
Mean anomaly
286.2627°
Rev number
3,296

§ Raw data

STARLINK-355361 66261U 25245AD  26145.11559175  .00011892  00000+0  39418-3 0  99992 66261  53.1583 288.4755 0001712  73.8563 286.2627 15.31716149 32961

JSON: /api/v1/satellites/66261 · /tle

For live sub-satellite position, see the globe view (requires WebGL).

§ Visibility from observer

Set your observer location to see the next 7 days of passes ≥ 10°. The values pass through the URL so the page stays shareable.

No JS? Fill the form by hand. The geolocation button needs JavaScript.